Location: St. Louis
(38.6270°N, 90.1994°W)
Time: 07:44:25
(UTC-06:00)

Transit 4A - Pass Details

Date: 30 November 2021
Orbit: 864 x 981 km, 66.8° (Epoch: 19 January)

Event Time Altitude Azimuth Distance (km) Brightness Sun altitude
Rises 20:21:31 0° 223° (SW) 3,441 11.3 -42.7°
Reaches altitude 10° 20:24:02 10° 229° (SW) 2,515 10.5 -43.2°
Enters shadow 20:24:10 11° 229° (SW) 2,471 10.5 -43.2°
Maximum altitude 20:29:39 49° 304° (WNW) 1,135 - -44.3°
Drops below altitude 10° 20:35:27 10° 18° (NNE) 2,592 - -45.4°
Sets 20:38:06 0° 24° (NNE) 3,556 - -45.9°
